Location: Hope
(40.9110°N, 74.9680°W)
Time: 15:51:02
(UTC-05:00)

OTV 5 (USA 277) - Pass Details

Date: 01 February 2019
Orbit: 342 x 346 km, 54.5° (Epoch: 17 February)

Event Time Altitude Azimuth Distance (km) Brightness Sun altitude
Exits shadow 05:41:25 11° 0° (N) 1,238 ? -17.1°
Drops below altitude 10° 05:41:44 10° 6° (N) 1,296 ? -17.0°
Sets 05:44:34 0° 37° (NE) 2,139 ? -16.5°
